Location: Bishop�s Knoyle
(51.0728°N, 2.1714°W)
Time: 02:49:25
(UTC+00:00)

ISS - Pass Details

Date: 25 September 2021
Orbit: 417 x 423 km, 51.6° (Epoch: 28 October)

Event Time Altitude Azimuth Distance (km) Brightness Sun altitude
Rises 21:19:07 0° 285° (WNW) 2,370 1.0 -29.7°
Reaches altitude 10° 21:21:15 10° 280° (W) 1,505 -0.3 -30.0°
Enters shadow 21:21:28 11° 279° (W) 1,419 -0.5 -30.0°
